CW1428 Weather Reports


time (UTC)temp
C
wind
direction
speed
KPH
gust
KPH
rain 1hr
cm
rain 24hr
cm
rain mn
cm
humidity
%
barometer
mb
20260508075038 6 0 0.0 0.0 0.00 0.00 0.00 64 1020.7
20260508074549 6 0 0.0 0.0 0.00 0.00 0.00 63 1020.7
20260508074043 6 0 0.0 0.0 0.00 0.00 0.00 63 1020.8
20260508073539 6 0 0.0 0.0 0.00 0.00 0.00 62 1020.9
20260508073106 6 0 0.0 0.0 0.00 0.00 0.00 61 1020.9
20260508072538 7 0 0.0 0.0 0.00 0.00 0.00 61 1021.0
20260508072040 7 190 0.0 4.8 0.00 0.00 0.00 59 1020.9
20260508071550 7 0 0.0 4.8 0.00 0.00 0.00 58 1020.9
20260508071039 7 0 1.6 4.8 0.00 0.00 0.00 58 1020.9
20260508070539 7 190 0.0 4.8 0.00 0.00 0.00 58 1020.7
20260508070051 7 0 1.6 6.4 0.00 0.00 0.00 57 1020.7
20260508065539 8 190 1.6 6.4 0.00 0.00 0.00 57 1020.7
20260508065038 8 190 0.0 3.2 0.00 0.00 0.00 56 1020.7
20260508064559 8 190 0.0 4.8 0.00 0.00 0.00 55 1020.7
20260508064039 8 0 0.0 4.8 0.00 0.00 0.00 54 1020.7
20260508063540 9 0 0.0 6.4 0.00 0.00 0.00 53 1020.8
20260508063106 9 190 1.6 8.0 0.00 0.00 0.00 52 1020.9
20260508062538 10 190 0.0 8.0 0.00 0.00 0.00 51 1021.0
20260508062038 10 190 3.2 12.9 0.00 0.00 0.00 50 1021.0
20260508061547 10 190 3.2 19.3 0.00 0.00 0.00 49 1021.0
20260508061038 10 190 8.0 19.3 0.00 0.00 0.00 49 1021.1
20260508060539 10 190 6.4 19.3 0.00 0.00 0.00 48 1021.3
20260508060104 10 190 4.8 14.5 0.00 0.00 0.00 48 1021.4
20260508055538 10 190 6.4 12.9 0.00 0.00 0.00 47 1021.4
20260508055039 10 190 3.2 14.5 0.00 0.00 0.00 47 1021.5
20260508054544 10 190 6.4 14.5 0.00 0.00 0.00 47 1021.3
20260508054039 10 190 4.8 20.9 0.00 0.00 0.00 47 1021.3
20260508053538 11 190 6.4 27.4 0.00 0.00 0.00 47 1021.2
20260508053055 11 190 8.0 27.4 0.00 0.00 0.00 47 1021.2
20260508052540 11 190 9.7 20.9 0.00 0.00 0.00 47 1021.4
20260508052038 11 190 6.4 16.1 0.00 0.00 0.00 47 1021.5
20260508051606 11 190 6.4 16.1 0.00 0.00 0.00 46 1021.5
20260508051040 11 190 6.4 24.1 0.00 0.00 0.00 45 1021.5
20260508050539 11 190 14.5 27.4 0.00 0.00 0.00 45 1021.5
20260508050046 11 190 16.1 30.6 0.00 0.00 0.00 44 1021.3
20260508045538 11 190 16.1 30.6 0.00 0.00 0.00 44 1021.4
20260508045038 11 190 9.7 30.6 0.00 0.00 0.00 43 1021.2
20260508044548 11 190 11.3 20.9 0.00 0.00 0.00 43 1021.1
20260508044042 11 190 6.4 19.3 0.00 0.00 0.00 43 1021.2
20260508043538 11 190 9.7 19.3 0.00 0.00 0.00 43 1021.0
20260508043052 11 190 8.0 14.5 0.00 0.00 0.00 44 1021.1
20260508042539 10 190 6.4 12.9 0.00 0.00 0.00 46 1021.1
20260508042041 10 190 1.6 4.8 0.00 0.00 0.00 45 1021.1
20260508041543 11 190 0.0 4.8 0.00 0.00 0.00 45 1021.2
20260508041039 11 190 3.2 4.8 0.00 0.00 0.00 44 1021.2
20260508040538 11 190 0.0 11.3 0.00 0.00 0.00 44 1021.1
20260508040050 11 190 4.8 11.3 0.00 0.00 0.00 43 1021.2
20260508035539 11 190 4.8 11.3 0.00 0.00 0.00 43 1021.2
20260508035039 11 190 4.8 11.3 0.00 0.00 0.00 43 1021.2
20260508034551 11 190 3.2 8.0 0.00 0.00 0.00 43 1021.2
20260508034039 11 190 3.2 8.0 0.00 0.00 0.00 43 1021.1
20260508033538 11 190 4.8 9.7 0.00 0.00 0.00 43 1021.1
20260508033055 12 190 4.8 9.7 0.00 0.00 0.00 42 1021.0
20260508032541 12 190 4.8 9.7 0.00 0.00 0.00 42 1021.0
20260508032041 12 190 4.8 9.7 0.00 0.00 0.00 41 1021.0
20260508031554 12 190 3.2 11.3 0.00 0.00 0.00 41 1020.8
20260508031038 12 190 4.8 11.3 0.00 0.00 0.00 41 1020.7
20260508030538 12 190 4.8 16.1 0.00 0.00 0.00 41 1020.7
20260508030059 12 190 8.0 16.1 0.00 0.00 0.00 40 1020.6
20260508025542 12 190 6.4 19.3 0.00 0.00 0.00 41 1020.6
20260508025039 12 190 4.8 19.3 0.00 0.00 0.00 40 1020.6
20260508024601 12 190 4.8 14.5 0.00 0.00 0.00 39 1020.6
20260508024040 12 190 6.4 16.1 0.00 0.00 0.00 38 1020.4
20260508023538 12 190 4.8 16.1 0.00 0.00 0.00 38 1020.4
20260508023053 12 190 6.4 16.1 0.00 0.00 0.00 39 1020.3
20260508022540 12 190 8.0 14.5 0.00 0.00 0.00 39 1020.3
20260508022039 12 190 3.2 9.7 0.00 0.00 0.00 38 1020.2
20260508021558 12 190 1.6 8.0 0.00 0.00 0.00 37 1020.1
20260508021039 12 190 1.6 6.4 0.00 0.00 0.00 37 1020.0
20260508020538 12 190 1.6 11.3 0.00 0.00 0.00 37 1019.9
20260508020054 12 190 3.2 11.3 0.00 0.00 0.00 37 1020.0
20260508015538 13 190 6.4 11.3 0.00 0.00 0.00 36 1019.9
20260508015038 12 190 0.0 9.7 0.00 0.00 0.00 38 1019.9
20260508014552 13 190 3.2 9.7 0.00 0.00 0.00 37 1019.8
20260508014039 13 190 4.8 11.3 0.00 0.00 0.00 37 1019.8
20260508013538 13 190 3.2 11.3 0.00 0.00 0.00 36 1019.7
20260508013043 13 190 4.8 11.3 0.00 0.00 0.00 35 1019.7
20260508012539 13 0 1.6 4.8 0.00 0.00 0.00 35 1019.7
20260508012039 13 190 1.6 9.7 0.00 0.00 0.00 35 1019.8
20260508011548 13 190 3.2 9.7 0.00 0.00 0.00 34 1019.7
20260508011039 13 190 6.4 12.9 0.00 0.00 0.00 33 1019.7
20260508010539 14 190 3.2 12.9 0.00 0.00 0.00 33 1019.7
20260508010052 14 190 6.4 14.5 0.00 0.00 0.00 33 1019.7
20260508005541 14 190 8.0 14.5 0.00 0.00 0.00 32 1019.8
20260508005039 14 190 6.4 19.3 0.00 0.00 0.00 33 1019.8
20260508004551 15 190 8.0 19.3 0.00 0.00 0.00 33 1019.8
20260508004039 15 190 8.0 19.3 0.00 0.00 0.00 33 1019.9
20260508003538 15 190 4.8 17.7 0.00 0.00 0.00 33 1019.9
20260508003044 15 190 6.4 17.7 0.00 0.00 0.00 33 1019.9
20260508002538 15 190 4.8 16.1 0.00 0.00 0.00 34 1020.0
20260508002038 15 190 8.0 22.5 0.00 0.00 0.00 33 1020.0
20260508001548 15 190 9.7 22.5 0.00 0.00 0.00 33 1020.0
20260508001038 15 190 14.5 22.5 0.00 0.00 0.00 32 1019.9
20260508000538 15 190 12.9 22.5 0.00 0.00 0.00 32 1019.9
20260508000052 15 190 14.5 20.9 0.00 0.00 0.00 32 1019.9
20260507235539 16 190 12.9 27.4 0.00 0.00 0.00 32 1019.9
20260507235038 15 190 12.9 27.4 0.00 0.00 0.00 33 1019.8
20260507234545 15 190 14.5 25.7 0.00 0.00 0.00 32 1019.8
20260507234038 15 190 16.1 25.7 0.00 0.00 0.00 32 1019.7
20260507233538 15 190 9.7 19.3 0.00 0.00 0.00 33 1019.7
20260507233046 15 190 6.4 14.5 0.00 0.00 0.00 35 1019.7
20260507232539 15 190 8.0 11.3 0.00 0.00 0.00 34 1019.7
20260507232038 15 190 1.6 17.7 0.00 0.00 0.00 33 1019.7
20260507231552 15 190 6.4 17.7 0.00 0.00 0.00 33 1019.7
20260507231038 15 190 4.8 17.7 0.00 0.00 0.00 32 1019.6
20260507230541 15 190 9.7 14.5 0.00 0.00 0.00 33 1019.7
20260507225535 15 190 6.4 22.5 0.00 0.00 0.00 32 1019.6
20260507225034 15 190 8.0 22.5 0.00 0.00 0.00 31 1019.6
20260507224540 15 190 8.0 22.5 0.00 0.00 0.00 29 1019.6
20260507224041 16 190 8.0 22.5 0.00 0.00 0.00 30 1019.6
20260507223540 16 190 9.7 24.1 0.00 0.00 0.00 28 1019.6
20260507223049 17 190 9.7 24.1 0.00 0.00 0.00 29 1019.6
20260507222539 17 190 4.8 20.9 0.00 0.00 0.00 29 1019.5
20260507222038 16 190 3.2 20.9 0.00 0.00 0.00 29 1019.5
20260507221551 16 190 11.3 20.9 0.00 0.00 0.00 29 1019.6
20260507221039 16 190 8.0 30.6 0.00 0.00 0.00 29 1019.6
20260507220542 16 190 11.3 30.6 0.00 0.00 0.00 30 1019.9
20260507220052 17 190 9.7 19.3 0.00 0.00 0.00 30 1019.9
20260507215539 17 190 3.2 24.1 0.00 0.00 0.00 31 1019.8
20260507215038 17 190 6.4 24.1 0.00 0.00 0.00 30 1019.9
20260507214551 17 190 8.0 24.1 0.00 0.00 0.00 29 1019.9
20260507214038 17 190 4.8 14.5 0.00 0.00 0.00 31 1020.0
20260507213538 17 190 4.8 14.5 0.00 0.00 0.00 29 1020.1
20260507213045 16 190 6.4 14.5 0.00 0.00 0.00 32 1020.2
20260507212538 16 190 6.4 16.1 0.00 0.00 0.00 33 1020.2
20260507212038 15 190 8.0 16.1 0.00 0.00 0.00 32 1020.3
20260507211546 15 190 3.2 14.5 0.00 0.00 0.00 33 1020.4
20260507211038 15 190 4.8 19.3 0.00 0.00 0.00 34 1020.5
20260507210535 15 190 8.0 19.3 0.00 0.00 0.00 33 1020.6
20260507210105 16 190 4.8 11.3 0.00 0.00 0.00 34 1020.5
20260507205539 16 190 4.8 11.3 0.00 0.00 0.00 34 1020.6
20260507205039 15 190 4.8 16.1 0.00 0.00 0.00 33 1020.7
20260507204544 15 190 8.0 16.1 0.00 0.00 0.00 32 1020.8
20260507204039 16 190 3.2 11.3 0.00 0.00 0.00 36 1020.7
20260507203539 16 190 1.6 11.3 0.00 0.00 0.00 34 1020.8
20260507203112 16 190 4.8 16.1 0.00 0.00 0.00 33 1020.8
20260507202540 16 190 8.0 16.1 0.00 0.00 0.00 34 1020.8
20260507202043 16 190 3.2 9.7 0.00 0.00 0.00 32 1020.7
20260507201545 16 190 1.6 9.7 0.00 0.00 0.00 35 1020.8
20260507201039 16 190 4.8 9.7 0.00 0.00 0.00 37 1020.9
20260507200538 16 190 3.2 11.3 0.00 0.00 0.00 34 1021.0
20260507200053 16 190 3.2 11.3 0.00 0.00 0.00 35 1021.0
20260507195541 15 190 3.2 12.9 0.00 0.00 0.00 42 1021.1
20260507195035 15 190 1.6 12.9 0.00 0.00 0.00 35 1021.2
20260507194601 15 190 6.4 14.5 0.00 0.00 0.00 35 1021.3
20260507194035 14 190 3.2 14.5 0.00 0.00 0.00 37 1021.4
20260507193539 14 190 6.4 14.5 0.00 0.00 0.00 36 1021.5
20260507193052 15 190 4.8 16.1 0.00 0.00 0.00 36 1021.6
20260507192538 13 190 3.2 16.1 0.00 0.00 0.00 42 1021.6
20260507192038 13 190 4.8 12.9 0.00 0.00 0.00 37 1021.7
20260507191550 13 190 3.2 12.9 0.00 0.00 0.00 38 1021.7
20260507191038 13 190 1.6 11.3 0.00 0.00 0.00 39 1021.8
20260507190539 12 190 4.8 11.3 0.00 0.00 0.00 40 1021.9
20260507190053 13 190 4.8 14.5 0.00 0.00 0.00 43 1021.9
20260507185539 12 190 3.2 16.1 0.00 0.00 0.00 45 1022.1
20260507185038 12 190 8.0 17.7 0.00 0.00 0.00 40 1022.2
20260507184543 12 190 6.4 17.7 0.00 0.00 0.00 41 1022.3
20260507184036 12 190 8.0 16.1 0.00 0.00 0.00 39 1022.3
20260507183535 12 190 3.2 16.1 0.00 0.00 0.00 39 1022.5
20260507183043 11 190 6.4 17.7 0.00 0.00 0.00 38 1022.6
20260507182538 11 190 6.4 17.7 0.00 0.00 0.00 42 1022.8
20260507182038 11 190 4.8 16.1 0.00 0.00 0.00 39 1022.8
20260507181542 11 190 3.2 16.1 0.00 0.00 0.00 40 1022.9
20260507181039 11 190 9.7 16.1 0.00 0.00 0.00 40 1023.0
20260507180539 10 190 3.2 16.1 0.00 0.00 0.00 41 1023.2
20260507180048 10 190 6.4 11.3 0.00 0.00 0.00 41 1023.3
20260507175540 10 190 4.8 12.9 0.00 0.03 0.00 40 1023.5
20260507175036 10 190 4.8 12.9 0.00 0.03 0.00 41 1023.6
20260507174548 10 190 1.6 19.3 0.00 0.03 0.00 43 1023.7
20260507174038 8 190 3.2 19.3 0.00 0.03 0.00 42 1023.9
20260507173535 8 190 8.0 14.5 0.00 0.03 0.00 41 1023.9
20260507173114 8 190 4.8 11.3 0.00 0.03 0.00 44 1023.9
20260507172536 8 190 4.8 12.9 0.00 0.03 0.00 40 1024.1
20260507172036 8 190 3.2 12.9 0.00 0.03 0.00 43 1024.3
20260507171545 8 190 3.2 8.0 0.00 0.03 0.00 41 1024.4
20260507171035 8 190 1.6 6.4 0.00 0.03 0.00 46 1024.5
20260507170536 7 190 0.0 6.4 0.00 0.03 0.00 45 1024.6
20260507170044 7 190 3.2 6.4 0.00 0.03 0.00 43 1024.8
20260507165538 8 190 0.0 8.0 0.00 0.15 0.00 42 1024.8
20260507165039 7 190 1.6 8.0 0.00 0.15 0.00 43 1025.0
20260507164547 7 190 1.6 6.4 0.00 0.15 0.00 45 1025.1
20260507164039 6 190 1.6 4.8 0.00 0.15 0.00 43 1025.2
20260507163543 6 0 1.6 8.0 0.00 0.15 0.00 47 1025.3
20260507163044 6 190 1.6 8.0 0.00 0.15 0.00 47 1025.3
20260507162539 5 190 1.6 8.0 0.00 0.15 0.00 49 1025.5
20260507162038 5 190 1.6 8.0 0.00 0.15 0.00 50 1025.5
20260507161550 4 190 0.0 6.4 0.00 0.15 0.00 53 1025.6
20260507161038 4 190 3.2 6.4 0.00 0.15 0.00 53 1025.6
20260507160536 4 190 1.6 6.4 0.00 0.15 0.00 51 1025.8
20260507160059 5 190 0.0 4.8 0.00 0.15 0.00 48 1025.8
20260507155538 4 190 0.0 6.4 0.00 0.18 0.00 54 1025.8
20260507155036 3 190 3.2 6.4 0.00 0.18 0.00 57 1025.9
20260507154546 3 190 1.6 4.8 0.00 0.18 0.00 53 1025.9
20260507154036 3 190 1.6 4.8 0.00 0.18 0.00 55 1026.0
20260507153537 3 190 0.0 4.8 0.00 0.18 0.00 58 1026.1
20260507153050 2 190 0.0 4.8 0.00 0.18 0.00 57 1026.1
20260507152535 2 190 1.6 6.4 0.00 0.18 0.00 55 1026.2
20260507152035 2 190 1.6 6.4 0.00 0.18 0.00 57 1026.2
20260507151547 2 0 0.0 4.8 0.00 0.18 0.00 62 1026.3
20260507151034 2 190 0.0 4.8 0.00 0.18 0.00 62 1026.4
20260507150535 1 190 1.6 6.4 0.00 0.18 0.00 62 1026.5
20260507150048 1 190 1.6 6.4 0.00 0.18 0.00 62 1026.5
20260507145536 1 0 0.0 6.4 0.00 0.38 0.00 66 1026.6
20260507145035 0 190 1.6 3.2 0.00 0.38 0.00 65 1026.7
20260507144545 1 190 0.0 3.2 0.00 0.38 0.00 65 1026.7
20260507144040 0 0 0.0 4.8 0.00 0.38 0.00 66 1026.7
20260507143539 0 190 1.6 4.8 0.00 0.38 0.00 67 1026.7
20260507143057 0 190 0.0 4.8 0.00 0.38 0.00 68 1026.8
20260507142535 0 190 1.6 4.8 0.00 0.38 0.00 67 1026.9
20260507142035 0 190 0.0 4.8 0.00 0.38 0.00 68 1026.9
20260507141558 0 190 0.0 4.8 0.00 0.38 0.00 67 1026.9
20260507141035 0 190 0.0 4.8 0.00 0.38 0.00 69 1026.9
20260507140537 0 190 0.0 3.2 0.00 0.38 0.00 71 1027.0
20260507140041 -1 0 0.0 3.2 0.00 0.38 0.00 74 1027.0
20260507135537 -2 0 0.0 3.2 0.00 0.48 0.00 73 1026.9
20260507135037 -2 190 0.0 1.6 0.00 0.48 0.00 73 1026.9
20260507134554 -2 190 0.0 1.6 0.00 0.48 0.00 73 1026.9
20260507134035 -2 0 0.0 1.6 0.00 0.48 0.00 74 1026.9
20260507133537 -3 0 0.0 3.2 0.00 0.48 0.00 75 1026.9
20260507133125 -3 190 0.0 3.2 0.00 0.48 0.00 74 1026.8
20260507132537 -3 0 0.0 0.0 0.00 0.48 0.00 75 1026.9
20260507132037 -2 0 0.0 0.0 0.00 0.48 0.00 72 1026.8
20260507131547 -2 0 0.0 0.0 0.00 0.48 0.00 76 1026.8
20260507131038 -3 0 0.0 0.0 0.00 0.48 0.00 80 1026.8
20260507130538 -4 0 0.0 0.0 0.00 0.48 0.00 82 1026.7
20260507125537 -5 0 0.0 0.0 0.00 0.53 0.00 82 1026.8
20260507125038 -6 0 0.0 0.0 0.00 0.53 0.00 84 1026.7
20260507124556 -6 0 0.0 0.0 0.00 0.53 0.00 84 1026.6
20260507124037 -6 0 0.0 0.0 0.00 0.53 0.00 85 1026.6
20260507123537 -6 0 0.0 0.0 0.00 0.53 0.00 85 1026.6
20260507123051 -6 0 0.0 0.0 0.00 0.53 0.00 84 1026.4
20260507122537 -6 0 0.0 0.0 0.00 0.53 0.00 84 1026.3
20260507122037 -6 0 0.0 0.0 0.00 0.53 0.00 84 1026.3
20260507121550 -6 0 0.0 0.0 0.00 0.53 0.00 84 1026.2
20260507121037 -6 0 0.0 0.0 0.00 0.53 0.00 84 1026.2
20260507120536 -6 0 0.0 0.0 0.00 0.53 0.00 83 1026.1
20260507120049 -6 0 0.0 0.0 0.00 0.53 0.00 83 1026.2
20260507115537 -6 0 0.0 0.0 0.00 0.58 0.00 83 1026.2
20260507115038 -6 0 0.0 0.0 0.00 0.58 0.00 83 1026.2
20260507114600 -6 0 0.0 0.0 0.00 0.58 0.00 83 1026.3
20260507114039 -6 0 0.0 1.6 0.00 0.58 0.00 82 1026.2
20260507113538 -6 0 0.0 1.6 0.00 0.58 0.00 82 1026.2
20260507113051 -6 190 0.0 1.6 0.00 0.58 0.00 82 1026.1
20260507112537 -6 0 0.0 1.6 0.00 0.58 0.00 83 1026.0
20260507112041 -6 0 0.0 1.6 0.00 0.58 0.00 83 1025.9
20260507111551 -6 190 0.0 0.0 0.00 0.58 0.00 83 1025.9
20260507111037 -6 0 0.0 0.0 0.00 0.58 0.00 82 1025.8
20260507110541 -6 0 0.0 0.0 0.00 0.58 0.00 82 1025.8
20260507110045 -6 0 0.0 1.6 0.00 0.58 0.00 82 1025.9
20260507105536 -6 190 0.0 1.6 0.00 0.64 0.00 81 1026.0
20260507105037 -5 0 0.0 1.6 0.00 0.64 0.00 81 1026.1
20260507104547 -5 0 0.0 1.6 0.00 0.64 0.00 82 1026.1
20260507104037 -5 190 0.0 1.6 0.00 0.64 0.00 82 1026.1
20260507103539 -5 0 0.0 0.0 0.00 0.64 0.00 83 1026.0
20260507103051 -5 0 0.0 0.0 0.00 0.64 0.00 83 1026.1
20260507102537 -5 0 0.0 0.0 0.00 0.64 0.00 83 1026.0
20260507102039 -5 190 0.0 0.0 0.00 0.64 0.00 83 1026.0
20260507101548 -5 0 0.0 0.0 0.00 0.64 0.00 83 1026.1
20260507101036 -5 0 0.0 0.0 0.00 0.64 0.00 82 1026.1
20260507100535 -5 0 0.0 0.0 0.00 0.64 0.00 82 1026.1
20260507100050 -5 0 0.0 0.0 0.00 0.64 0.00 82 1026.0
20260507095535 -5 0 0.0 0.0 0.00 0.64 0.00 82 1025.9
20260507095036 -5 0 0.0 0.0 0.00 0.64 0.00 83 1025.9
20260507094557 -5 0 0.0 0.0 0.00 0.64 0.00 82 1026.0
20260507094035 -5 0 0.0 0.0 0.00 0.64 0.00 82 1025.9
20260507093535 -5 190 0.0 0.0 0.00 0.64 0.00 82 1025.8
20260507093049 -5 0 0.0 0.0 0.00 0.64 0.00 82 1025.9
20260507092535 -5 0 0.0 0.0 0.00 0.64 0.00 82 1025.7
20260507092035 -5 0 0.0 0.0 0.00 0.64 0.00 82 1025.7
20260507091551 -5 0 0.0 0.0 0.00 0.64 0.00 82 1025.6
20260507091035 -5 0 0.0 0.0 0.00 0.64 0.00 82 1025.6
20260507090534 -5 0 0.0 0.0 0.00 0.64 0.00 81 1025.6
20260507090045 -4 0 0.0 0.0 0.00 0.64 0.00 80 1025.7
20260507085538 -4 0 0.0 1.6 0.00 0.64 0.00 79 1025.6
20260507085036 -4 0 0.0 1.6 0.00 0.64 0.00 79 1025.6
20260507084549 -3 0 0.0 1.6 0.00 0.64 0.00 79 1025.5
20260507084035 -4 190 0.0 0.0 0.00 0.64 0.00 79 1025.5
20260507083535 -3 0 0.0 0.0 0.00 0.64 0.00 78 1025.3
20260507083046 -3 190 0.0 0.0 0.00 0.64 0.00 79 1025.2
20260507082535 -4 0 0.0 0.0 0.00 0.64 0.00 78 1025.3
20260507082036 -3 0 0.0 0.0 0.00 0.64 0.00 78 1025.3
20260507081544 -3 0 0.0 0.0 0.00 0.64 0.00 78 1025.5
20260507081035 -3 0 0.0 0.0 0.00 0.64 0.00 78 1025.7
20260507080536 -3 0 0.0 0.0 0.00 0.64 0.00 77 1025.6
20260507080050 -3 0 0.0 0.0 0.00 0.64 0.00 77 1025.7
20260507075535 -3 0 0.0 1.6 0.00 0.64 0.00 77 1025.7